Atlanta, GA

11:37 AM EDT on June 25, 2017 (GMT -0400)
The Hartsfield Atlanta International

Weather History for KATL - July, 2013

Change the Weather History Date:

Sunday, July 28, 2013

  Actual Average Record
Temperature  
Mean Temperature 78 °F 80 °F  
Max Temperature 86 °F 89 °F 101 °F (1952)
Min Temperature 69 °F 71 °F 62 °F (1911)
Degree Days  
Heating Degree Days 0 0  
Month to date heating degree days 0 0  
Since 1 June heating degree days 0 2  
Since 1 July heating degree days 0 0  
Cooling Degree Days 13 15  
Month to date cooling degree days 359 420  
Year to date cooling degree days 950 1041  
Since 1 June cooling degree days 742 791  
Growing Degree Days 28 (Base 50)    
Moisture  
Dew Point 68 °F    
Average Humidity 76    
Maximum Humidity 97    
Minimum Humidity 55    
Precipitation  
Precipitation 0.00 in 0.15 in 3.07 in (1887)
Month to date precipitation 7.91 4.83  
Year to date precipitation 45.23 29.49  
Sea Level Pressure  
Sea Level Pressure 29.98 in    
Wind  
Wind Speed 4 mph (WNW)    
Max Wind Speed 13 mph    
Max Gust Speed 14 mph    
Visibility 9 miles    
Events      
T = Trace of Precipitation, MM = Missing Value Source: NWS Daily Summary

Daily Weather History Graph

Daily Weather History Graph

Search for Another Location

Airport or City:

Trip Planner

Search our weather history database for the weather conditions in past years. The results will help you decide how hot, cold, wet, or windy it might be!

Date:

Astronomy

Jul. 28, 2013 Rise Set
Actual Time 6:47 AM EDT 8:40 PM EDT
Civil Twilight 6:19 AM EDT 9:08 PM EDT
Nautical Twilight 5:46 AM EDT 9:41 PM EDT
Astronomical Twilight 5:10 AM EDT 10:16 PM EDT
Moon No Moon Rise 1:06 PM EDT (7/28)
Length of Visible Light 14h 48m
Length of Day
13h 53m
Waning Gibbous, 61% of the Moon is Illuminated
Jul 28
Waning Gibbous
Jul 29
Last Quarter
Aug 6
New
Aug 14
First Quarter
Aug 20
Full

Hourly Weather History & Observations

Time (EDT) Temp. Heat Index Dew Point Humidity Pressure Visibility Wind Dir Wind Speed Gust Speed Precip Events Conditions
12:52 AM 72.0 °F - 66.9 °F 84% 29.95 in 10.0 mi WNW 5.8 mph - N/A   Partly Cloudy
1:52 AM 72.0 °F - 66.9 °F 84% 29.94 in 10.0 mi WNW 3.5 mph - N/A   Mostly Cloudy
2:52 AM 71.1 °F - 66.9 °F 87% 29.94 in 10.0 mi West 5.8 mph - N/A   Mostly Cloudy
3:52 AM 71.1 °F - 66.9 °F 87% 29.94 in 10.0 mi West 6.9 mph - N/A   Mostly Cloudy
4:52 AM 70.0 °F - 66.9 °F 90% 29.94 in 10.0 mi West 4.6 mph - N/A   Partly Cloudy
5:52 AM 69.1 °F - 66.9 °F 93% 29.95 in 8.0 mi WNW 5.8 mph - N/A   Partly Cloudy
6:52 AM 69.1 °F - 66.9 °F 93% 29.96 in 7.0 mi West 3.5 mph - N/A   Partly Cloudy
7:52 AM 70.0 °F - 68.0 °F 93% 29.98 in 6.0 mi Calm Calm - N/A   Partly Cloudy
8:52 AM 73.0 °F - 69.1 °F 87% 29.99 in 8.0 mi SSW 3.5 mph - N/A   Scattered Clouds
9:52 AM 78.1 °F - 70.0 °F 76% 29.99 in 10.0 mi West 4.6 mph - N/A   Scattered Clouds
10:52 AM 81.0 °F 84.4 °F 70.0 °F 69% 30.00 in 10.0 mi NW 4.6 mph - N/A   Scattered Clouds
11:52 AM 82.0 °F 84.5 °F 66.9 °F 60% 30.00 in 10.0 mi Calm Calm - N/A   Mostly Cloudy
12:52 PM 82.9 °F 85.8 °F 68.0 °F 60% 30.00 in 10.0 mi Variable 3.5 mph - N/A   Mostly Cloudy
1:52 PM 84.0 °F 86.3 °F 66.0 °F 55% 29.99 in 10.0 mi Calm Calm - N/A   Scattered Clouds
2:52 PM 84.0 °F 87.0 °F 68.0 °F 58% 29.98 in 10.0 mi WSW 5.8 mph - N/A   Mostly Cloudy
3:52 PM 84.9 °F 88.2 °F 68.0 °F 57% 29.96 in 10.0 mi Variable 5.8 mph - N/A   Overcast
4:52 PM 84.0 °F 87.0 °F 68.0 °F 58% 29.96 in 10.0 mi West 6.9 mph - N/A   Overcast
5:52 PM 84.0 °F 88.4 °F 70.0 °F 63% 29.96 in 9.0 mi West 8.1 mph - N/A   Mostly Cloudy
6:52 PM 82.9 °F 86.5 °F 69.1 °F 63% 29.97 in 10.0 mi WNW 8.1 mph - N/A   Mostly Cloudy
7:52 PM 81.0 °F 84.4 °F 70.0 °F 69% 29.99 in 10.0 mi West 6.9 mph - N/A   Scattered Clouds
8:52 PM 79.0 °F - 69.1 °F 72% 29.99 in 10.0 mi West 4.6 mph - N/A   Mostly Cloudy
9:52 PM 79.0 °F - 70.0 °F 74% 30.01 in 10.0 mi NNW 3.5 mph - N/A   Scattered Clouds
10:52 PM 79.0 °F - 70.0 °F 74% 30.03 in 10.0 mi NW 4.6 mph - N/A   Scattered Clouds
11:52 PM 77.0 °F - 70.0 °F 79% 30.03 in 10.0 mi NW 4.6 mph - N/A   Mostly Cloudy